Beaufort MCAS, SC

4:07 AM EST on December 12, 2017 (GMT -0500)
Beaufort Marine Corps Air Station

Weather History for KNBC - October, 2013

Change the Weather History Date:

Friday, October 18, 2013

  Actual Average Record
Temperature  
Mean Temperature 76 °F -  
Max Temperature 86 °F 76 °F 87 °F (2007)
Min Temperature 69 °F 57 °F 39 °F (1943)
Cooling Degree Days 12    
Growing Degree Days 26 (Base 50)    
Moisture  
Dew Point 69 °F    
Average Humidity 81    
Maximum Humidity 93    
Minimum Humidity 56    
Precipitation  
Precipitation 0.00 in - - ()
Sea Level Pressure  
Sea Level Pressure 29.95 in    
Wind  
Wind Speed 4 mph (West)    
Max Wind Speed 10 mph    
Max Gust Speed -    
Visibility 10 miles    
Events Fog    
Averages and records for this station are not official NWS values.
T = Trace of Precipitation, MM = Missing Value Source: NWS Daily Summary

Daily Weather History Graph

Daily Weather History Graph

Search for Another Location

Airport or City:

Trip Planner

Search our weather history database for the weather conditions in past years. The results will help you decide how hot, cold, wet, or windy it might be!

Date:

Astronomy

Oct. 18, 2013 Rise Set
Actual Time 7:29 AM EDT 6:46 PM EDT
Civil Twilight 7:04 AM EDT 7:11 PM EDT
Nautical Twilight 6:35 AM EDT 7:39 PM EDT
Astronomical Twilight 6:07 AM EDT 8:08 PM EDT
Moon 6:36 PM EDT (10/18) 7:03 AM EDT (10/18)
Length of Visible Light 12h 06m
Length of Day
11h 17m
Full, 100% of the Moon is Illuminated
Oct 18
Full
Oct 18
Full
Oct 26
Last Quarter
Nov 3
New
Nov 10
First Quarter

Hourly Weather History & Observations

Time (EDT) Temp. Heat Index Dew Point Humidity Pressure Visibility Wind Dir Wind Speed Gust Speed Precip Events Conditions
12:56 AM 73.0 °F - 70.0 °F 90% 29.92 in 10.0 mi SSW 4.6 mph - N/A   Clear
1:56 AM 72.0 °F - 69.1 °F 91% 29.91 in 10.0 mi SSW 3.5 mph - N/A   Clear
2:56 AM 72.0 °F - 69.1 °F 91% 29.91 in 10.0 mi SSW 3.5 mph - N/A   Clear
3:56 AM 71.1 °F - 69.1 °F 93% 29.91 in 10.0 mi South 3.5 mph - N/A   Clear
4:56 AM 70.0 °F - 68.0 °F 93% 29.91 in 10.0 mi SSW 3.5 mph - N/A   Clear
5:56 AM 70.0 °F - 68.0 °F 93% 29.93 in 10.0 mi West 3.5 mph - N/A   Mostly Cloudy
6:56 AM 69.1 °F - 66.9 °F 93% 29.94 in 7.0 mi Calm Calm - N/A Fog Shallow Fog
7:56 AM 71.1 °F - 68.0 °F 90% 29.95 in 9.0 mi Calm Calm - 0.00 in   Smoke
8:56 AM 73.0 °F - 69.1 °F 87% 29.97 in 10.0 mi SW 3.5 mph - N/A   Mostly Cloudy
9:56 AM 75.0 °F - 70.0 °F 84% 29.99 in 10.0 mi WNW 6.9 mph - N/A   Mostly Cloudy
10:56 AM 77.0 °F - 69.1 °F 76% 29.99 in 10.0 mi Calm Calm - N/A   Overcast
11:56 AM 79.0 °F - 70.0 °F 74% 29.99 in 10.0 mi SSE 3.5 mph - N/A   Mostly Cloudy
12:56 PM 82.0 °F 84.5 °F 66.9 °F 60% 29.97 in 10.0 mi Variable 3.5 mph - N/A   Mostly Cloudy
1:56 PM 84.0 °F 87.8 °F 69.1 °F 61% 29.94 in 10.0 mi WNW 6.9 mph - N/A   Mostly Cloudy
2:56 PM 82.9 °F 86.5 °F 69.1 °F 63% 29.93 in 10.0 mi Variable 3.5 mph - N/A   Mostly Cloudy
3:56 PM 84.0 °F 86.5 °F 66.9 °F 56% 29.92 in 10.0 mi WNW 6.9 mph - N/A   Mostly Cloudy
4:56 PM 82.0 °F 85.9 °F 70.0 °F 67% 29.92 in 10.0 mi NNW 10.4 mph - N/A   Mostly Cloudy
5:56 PM 79.0 °F - 70.0 °F 74% 29.94 in 10.0 mi NNW 4.6 mph - N/A   Mostly Cloudy
6:56 PM 77.0 °F - 70.0 °F 79% 29.95 in 10.0 mi Calm Calm - N/A   Overcast
7:43 PM 75.9 °F - 69.1 °F 79% 29.96 in 10.0 mi North 6.9 mph - N/A   Overcast
7:56 PM 75.9 °F - 70.0 °F 82% 29.96 in 10.0 mi North 5.8 mph - N/A   Overcast
8:14 PM 75.0 °F - 70.0 °F 84% 29.96 in 10.0 mi NNE 4.6 mph - N/A   Overcast
8:56 PM 73.9 °F - 69.1 °F 85% 29.96 in 10.0 mi NNE 3.5 mph - N/A   Overcast
9:21 PM 73.9 °F - 69.1 °F 85% 29.96 in 10.0 mi Calm Calm - N/A   Mostly Cloudy
9:56 PM 75.0 °F - 70.0 °F 84% 29.98 in 10.0 mi Calm Calm - N/A   Overcast
10:31 PM 75.0 °F - 70.0 °F 84% 29.97 in 10.0 mi Calm Calm - N/A   Mostly Cloudy
10:56 PM 73.9 °F - 70.0 °F 87% 29.97 in 10.0 mi Calm Calm - N/A   Partly Cloudy
11:56 PM 72.0 °F - 69.1 °F 91% 29.96 in 9.0 mi Calm Calm - N/A   Partly Cloudy